Location: Hyderabad
(17.3833°N, 78.4667°E)
Time: 07:00:04
(UTC+05:30)

Daily predictions for brighter satellites

Satellite Brightness Start Highest point End
(mag) Time Altitude Azimuth Time Altitude Azimuth Time Altitude Azimuth
Meteor 1-18 Rocket 4.4 18:46:56 10° N 18:52:45 89° W 18:58:27 10° S
GPS 2-04 Rocket1 3.8 18:55:03 10° WNW 18:58:32 37° SW 19:02:12 10° SSE
Okean 1 Rocket 3.7 18:55:19 10° SSW 18:59:40 62° W 19:04:00 10° N
SJ-6B 2.7 18:56:37 10° SSE 19:00:20 66° ENE 19:04:02 10° N
Cosmos 1809 Rocket 4.4 19:07:42 10° S 19:13:49 66° E 19:19:54 10° NNE
Meteor 1-11 Rocket 4.0 19:08:37 10° SSW 19:14:17 72° W 19:19:51 10° N
ATLAS 2A CENTAUR R/B 2.7 19:16:24 10° WNW 19:21:51 26° N 19:23:55 11° NE
CZ-4B DEB 3.9 19:21:44 18° ESE 19:23:15 25° ENE 19:25:58 10° NNE
Palapa 6 Rocket 3.9 19:21:46 10° WNW 19:27:17 51° N 19:30:42 17° ENE
Okean 1-7 Rocket 3.5 19:23:02 10° N 19:27:24 89° ENE 19:31:49 10° S
ALOS 3.2 19:24:29 15° SE 19:27:26 28° ENE 19:31:24 10° NNE
Cosmos 1934 Rocket 4.0 19:23:35 10° S 19:29:28 56° E 19:35:27 10° NNE
Cosmos 1536 3.4 19:25:51 10° SSW 19:29:45 60° W 19:33:41 10° N
Cosmos 2208 Rocket 3.9 19:24:57 10° S 19:30:08 68° ESE 19:35:25 10° NNE
USA 186 4.0 19:32:38 12° NE 19:32:38 12° NE 19:33:17 10° NE
Hubble Space Telescope 3.0 19:28:37 10° NW 19:31:25 17° N 19:34:12 10° NE
ATLAS 2AS CENTAUR R/B 3.2 19:24:00 10° NNW 19:31:41 71° WSW 19:38:39 10° SSE
Fermi 3.7 19:31:14 10° WSW 19:35:19 87° NNW 19:37:53 22° ENE
Cosmos 1633 4.2 19:36:10 10° SSW 19:39:34 36° W 19:42:58 10° NNW
Spot 2 Rocket 3.9 19:41:35 10° S 19:46:38 63° WSW 19:51:40 10° NNW
Cosmos 2219 3.3 19:41:31 10° N 19:47:00 55° ENE 19:50:08 25° SE
Cosmos 1570 Rocket 4.4 19:44:01 10° SSW 19:49:17 65° WNW 19:54:33 10° N
Cosmos 2278 3.9 19:46:11 10° SSW 19:51:48 73° WNW 19:57:28 10° NNE
Cosmos 1697 Rocket 3.8 19:48:23 10° SSE 19:55:16 25° ENE 19:58:14 10° NE
GOES 2 Rocket 4.5 19:50:58 10° NW 19:54:36 27° NNE 19:56:13 22° NE
Resurs 1-3 4.1 19:52:53 10° S 19:57:11 58° W 20:01:29 10° NNW
Helios 1A 4.4 19:54:08 10° SSW 19:57:58 37° W 20:01:51 10° NNW
Meteor 2-4 Rocket 3.7 19:52:32 10° N 19:58:25 76° E 20:03:25 15° S
ARIANE 5 R/B 4.3 19:57:41 10° SW 19:59:07 12° SSW 19:59:28 11° SSW
Cosmos 1455 Rocket 3.3 19:58:46 10° SSW 20:03:03 66° W 20:07:20 10° N
H-2A R/B 3.2 20:01:45 10° NW 20:01:49 11° NW 20:01:49 11° NW
Cosmos 2369 4.1 19:58:58 10° SSW 20:04:32 62° WNW 20:10:08 10° N
CZ-3A R/B 2.3 19:54:55 10° WNW 20:06:29 79° SSW 20:07:21 54° SE
Cosmos 1892 Rocket 3.4 20:04:55 10° N 20:09:24 82° E 20:10:16 57° SSE
NATO 3D Rocket 4.3 20:00:56 10° WSW 20:10:19 80° SSE 20:12:59 41° E
Resurs 01 Rocket 3.6 20:07:04 10° SSW 20:10:47 27° W 20:14:31 10° NW
Cosmos 1605 Rocket 4.0 20:05:04 10° S 20:11:28 87° W 20:17:49 10° N
Cosmos 1975 4.2 20:15:12 29° NNE 20:15:12 29° NNE 20:17:17 10° NNE
Meteor 1-23 Rocket 4.2 20:08:35 10° N 20:14:15 81° W 20:18:03 22° S
Cosmos 1025 Rocket 4.2 20:12:28 10° NNW 20:16:32 41° W 20:19:52 14° SSW
Okean 2 3.5 20:14:06 10° N 20:17:45 68° N 20:17:45 68° N
GPS 2-15 Rocket1 3.6 20:30:03 10° W 20:33:50 57° W 20:33:50 57° W
ERS-1 Rocket 4.3 20:37:26 28° NNE 20:37:26 28° NNE 20:39:55 10° N
Cosmos 2227 Rocket 3.6 20:48:37 10° N 20:51:18 28° N 20:51:18 28° N
NOSS 3-4 (A) 4.3 20:50:09 10° NNW 20:55:57 51° NNE 20:55:57 51° NNE
NOSS 3-4 (C) 4.3 20:50:16 10° NNW 20:56:02 50° NNE 20:56:02 50° NNE
Cosmos 2297 Rocket 4.2 21:04:35 10° N 21:06:10 19° N 21:06:10 19° N
Hubble Space Telescope 3.9 21:09:40 10° NW 21:10:02 12° NW 21:10:02 12° NW
